Location: Cicognara
(44.9500°N, 10.4667°E)
Time: 21:40:49
(UTC+00:00)

Cosmos 2346 Rocket - Pass Details

Date: 20 June 2021
Orbit: 937 x 979 km, 82.9° (Epoch: 23 July)

Event Time Altitude Azimuth Distance (km) Brightness Sun altitude
Exits shadow 22:16:19 36° 167° (SSE) 1,461 4.9 -20.1°
Maximum altitude 22:18:54 70° 94° (E) 1,015 4.5 -20.2°
Drops below altitude 10° 22:25:03 10° 13° (NNE) 2,711 7.8 -20.5°
Sets 22:27:35 0° 11° (N) 3,668 8.7 -20.6°
